Kankakee, IL

1:37 AM CDT on October 22, 2019 (GMT -0500)
Greater Kankakee

Weather History for KIKK - August, 2019

Change the Weather History Date:

Sunday, August 18, 2019

  Actual Average Record
Temperature  
Mean Temperature 76 °F -  
Max Temperature 86 °F 83 °F 103 °F (1988)
Min Temperature 67 °F 60 °F 48 °F (2012)
Cooling Degree Days 12    
Growing Degree Days 26 (Base 50)    
Moisture  
Dew Point 69 °F    
Average Humidity 83    
Maximum Humidity 98    
Minimum Humidity 52    
Precipitation  
Precipitation 0.08 in - - ()
Sea Level Pressure  
Sea Level Pressure 29.88 in    
Wind  
Wind Speed 5 mph (SSW)    
Max Wind Speed 22 mph    
Max Gust Speed 25 mph    
Visibility 10 miles    
Events Rain , Thunderstorm    
Averages and records for this station are not official NWS values.
T = Trace of Precipitation, MM = Missing Value Source: NWS Daily Summary

Daily Weather History Graph

Daily Weather History Graph

Search for Another Location

Airport or City:

Astronomy

Aug. 18, 2019 Rise Set
Actual Time 6:03 AM CDT 7:45 PM CDT
Civil Twilight 5:34 AM CDT 8:15 PM CDT
Nautical Twilight 4:58 AM CDT 8:50 PM CDT
Astronomical Twilight 4:20 AM CDT 9:28 PM CDT
Moon 9:39 PM CDT (8/18) 8:49 AM CDT (8/18)
Length of Visible Light 14h 40m
Length of Day
13h 42m
Waning Gibbous, 91% of the Moon is Illuminated
Aug 18
Waning Gibbous
Aug 23
Last Quarter
Aug 30
New
Sep 5
First Quarter
Sep 13
Full

Hourly Weather History & Observations

Time (CDT) Temp. Heat Index Dew Point Humidity Pressure Visibility Wind Dir Wind Speed Gust Speed Precip Events Conditions
12:15 AM 68.9 °F - 68.2 °F 98% 29.90 in 10.0 mi Calm Calm - N/A   Scattered Clouds
12:35 AM 68.4 °F - 67.6 °F 98% 29.90 in 10.0 mi SSE 3.5 mph - N/A   Clear
12:55 AM 68.9 °F - 68.0 °F 97% 29.90 in 10.0 mi SSE 5.8 mph - N/A   Scattered Clouds
1:15 AM 68.9 °F - 68.2 °F 98% 29.89 in 10.0 mi SE 4.6 mph - N/A   Mostly Cloudy
1:35 AM 68.9 °F - 68.2 °F 98% 29.89 in 10.0 mi SSE 5.8 mph - N/A   Scattered Clouds
1:55 AM 67.8 °F - 67.1 °F 98% 29.88 in 10.0 mi SSE 4.6 mph - N/A   Clear
2:15 AM 67.8 °F - 67.1 °F 98% 29.87 in 10.0 mi SE 3.5 mph - N/A   Scattered Clouds
2:35 AM 67.6 °F - 67.1 °F 98% 29.87 in 10.0 mi SE 5.8 mph - N/A   Scattered Clouds
2:55 AM 68.4 °F - 67.6 °F 98% 29.86 in 10.0 mi SE 4.6 mph - N/A   Mostly Cloudy
3:15 AM 68.5 °F - 68.0 °F 98% 29.86 in 10.0 mi SE 4.6 mph - N/A   Overcast
3:35 AM 68.9 °F - 68.2 °F 98% 29.86 in 10.0 mi SE 3.5 mph - N/A   Mostly Cloudy
3:55 AM 68.9 °F - 68.0 °F 97% 29.86 in 10.0 mi ESE 4.6 mph - N/A   Mostly Cloudy
4:15 AM 68.9 °F - 68.2 °F 98% 29.87 in 10.0 mi SE 4.6 mph - N/A   Mostly Cloudy
4:35 AM 69.3 °F - 68.5 °F 98% 29.86 in 10.0 mi Calm Calm - N/A   Mostly Cloudy
4:55 AM 69.1 °F - 68.4 °F 98% 29.85 in 10.0 mi Calm Calm - N/A Thunderstorm Thunderstorm
5:15 AM 69.1 °F - 68.4 °F 98% 29.84 in 10.0 mi Calm Calm - N/A Rain Light Rain
5:35 AM 68.9 °F - 68.2 °F 98% 29.85 in 10.0 mi SE 3.5 mph - N/A   Clear
5:55 AM 69.4 °F - 68.9 °F 98% 29.86 in 10.0 mi SE 5.8 mph - N/A   Scattered Clouds
6:15 AM 68.9 °F - 68.2 °F 98% 29.85 in 7.0 mi SSE 5.8 mph - N/A   Clear
6:35 AM 69.6 °F - 68.9 °F 98% 29.85 in 10.0 mi SSE 5.8 mph - N/A Thunderstorm Mostly Cloudy
6:55 AM 70.0 °F - 69.3 °F 98% 29.85 in 10.0 mi SSE 6.9 mph - N/A Thunderstorm Mostly Cloudy
7:15 AM 70.9 °F - 70.2 °F 98% 29.85 in 10.0 mi South 6.9 mph - N/A Rain , Thunderstorm Light Thunderstorms and Rain
7:35 AM 71.8 °F - 70.7 °F 96% 29.86 in 10.0 mi SSW 5.8 mph - N/A   Scattered Clouds
7:55 AM 72.0 °F - 70.9 °F 96% 29.86 in 10.0 mi Calm Calm - N/A   Scattered Clouds
8:15 AM 72.9 °F - 71.6 °F 96% 29.85 in 10.0 mi South 8.1 mph - N/A   Scattered Clouds
8:35 AM 73.4 °F - 72.0 °F 95% 29.85 in 10.0 mi SSW 9.2 mph - N/A Thunderstorm Mostly Cloudy
8:55 AM 74.1 °F - 72.0 °F 93% 29.86 in 10.0 mi SSW 11.5 mph - N/A Thunderstorm Mostly Cloudy
9:15 AM 74.3 °F - 72.7 °F 95% 29.88 in 5.0 mi West 21.9 mph 25.3 mph 0.01 in Rain , Thunderstorm Heavy Thunderstorms and Rain
9:35 AM 73.8 °F - 72.9 °F 97% 29.89 in 10.0 mi WSW 11.5 mph 16.1 mph 0.03 in Rain , Thunderstorm Light Thunderstorms and Rain
9:55 AM 73.4 °F - 72.5 °F 97% 29.89 in 4.0 mi WNW 11.5 mph 17.3 mph 0.05 in Rain , Thunderstorm Light Thunderstorms and Rain
10:15 AM 73.4 °F - 71.1 °F 92% 29.89 in 10.0 mi North 8.1 mph - 0.01 in Thunderstorm Scattered Clouds
10:35 AM 75.2 °F - 71.4 °F 88% 29.89 in 10.0 mi North 5.8 mph - 0.01 in   Clear
10:55 AM 76.8 °F - 72.3 °F 86% 29.89 in 10.0 mi NNE 4.6 mph - 0.02 in   Mostly Cloudy
11:15 AM 77.0 °F - 67.8 °F 73% 29.90 in 10.0 mi Calm Calm - N/A   Scattered Clouds
11:35 AM 78.1 °F - 66.9 °F 68% 29.90 in 10.0 mi Calm Calm - N/A   Clear
11:55 AM 79.7 °F - 66.9 °F 65% 29.90 in 10.0 mi Calm Calm - N/A   Clear
12:15 PM 80.2 °F 82.5 °F 66.6 °F 63% 29.90 in 10.0 mi WSW 3.5 mph - N/A   Clear
12:35 PM 80.2 °F 83.0 °F 68.2 °F 67% 29.87 in 10.0 mi South 5.8 mph - N/A   Clear
12:55 PM 81.1 °F 84.0 °F 68.2 °F 65% 29.86 in 10.0 mi South 9.2 mph - N/A   Clear
1:15 PM 82.4 °F 86.1 °F 69.6 °F 65% 29.84 in 10.0 mi South 11.5 mph - N/A   Clear
1:35 PM 82.4 °F 85.8 °F 69.3 °F 64% 29.83 in 10.0 mi South 12.7 mph - N/A   Clear
1:55 PM 83.8 °F 87.5 °F 69.3 °F 61% 29.83 in 10.0 mi South 10.4 mph - N/A   Clear
2:15 PM 83.5 °F 86.9 °F 68.7 °F 61% 29.83 in 10.0 mi South 10.4 mph - N/A   Clear
2:35 PM 84.7 °F 88.5 °F 68.9 °F 59% 29.83 in 10.0 mi South 10.4 mph - N/A   Clear
2:55 PM 84.4 °F 88.7 °F 70.2 °F 62% 29.84 in 10.0 mi SSW 8.1 mph - N/A   Clear
3:15 PM 86.0 °F 89.4 °F 68.0 °F 55% 29.84 in 10.0 mi SW 6.9 mph - 0.01 in   Clear
3:35 PM 86.0 °F 88.5 °F 66.6 °F 52% 29.86 in 10.0 mi WSW 11.5 mph - 0.01 in   Clear
3:55 PM 84.4 °F 88.5 °F 69.6 °F 61% 29.86 in 10.0 mi West 9.2 mph - 0.01 in   Clear
4:15 PM 83.3 °F 87.4 °F 70.0 °F 64% 29.86 in 10.0 mi West 8.1 mph - N/A   Clear
4:35 PM 83.3 °F 87.1 °F 69.6 °F 63% 29.86 in 10.0 mi West 9.2 mph - N/A   Clear
4:55 PM 83.7 °F 88.0 °F 70.3 °F 64% 29.86 in 10.0 mi West 9.2 mph - N/A   Clear
5:15 PM 85.3 °F 89.4 °F 69.6 °F 59% 29.87 in 10.0 mi WSW 12.7 mph 17.3 mph N/A   Clear
5:35 PM 83.3 °F 86.6 °F 68.4 °F 61% 29.86 in 10.0 mi West 13.8 mph - N/A   Scattered Clouds
5:55 PM 82.4 °F 85.6 °F 68.5 °F 63% 29.86 in 10.0 mi West 9.2 mph - N/A   Scattered Clouds
6:15 PM 81.9 °F 85.0 °F 68.5 °F 64% 29.86 in 10.0 mi West 8.1 mph - N/A   Clear
6:35 PM 81.5 °F 84.9 °F 69.4 °F 67% 29.86 in 10.0 mi West 9.2 mph - N/A   Clear
6:55 PM 80.4 °F 83.4 °F 69.1 °F 68% 29.87 in 10.0 mi West 5.8 mph - N/A   Clear
7:15 PM 78.8 °F - 69.1 °F 72% 29.88 in 10.0 mi WNW 5.8 mph - N/A   Clear
7:35 PM 77.4 °F - 68.9 °F 75% 29.88 in 10.0 mi WNW 5.8 mph - N/A   Clear
7:55 PM 75.7 °F - 68.2 °F 77% 29.89 in 10.0 mi WNW 4.6 mph - N/A   Clear
8:15 PM 74.5 °F - 68.0 °F 80% 29.89 in 10.0 mi WNW 4.6 mph - N/A   Clear
8:35 PM 73.6 °F - 68.0 °F 83% 29.91 in 10.0 mi West 3.5 mph - N/A   Clear
8:55 PM 73.6 °F - 68.0 °F 83% 29.92 in 10.0 mi Calm Calm - N/A   Clear
9:15 PM 72.5 °F - 69.1 °F 89% 29.93 in 10.0 mi WSW 3.5 mph - N/A   Clear
9:35 PM 72.1 °F - 70.0 °F 93% 29.93 in 10.0 mi WSW 3.5 mph - N/A   Clear
9:55 PM 72.3 °F - 69.4 °F 91% 29.93 in 10.0 mi Calm Calm - N/A   Clear
10:15 PM 72.7 °F - 69.3 °F 89% 29.94 in 10.0 mi Calm Calm - N/A   Clear
10:35 PM 72.9 °F - 69.3 °F 88% 29.94 in 10.0 mi Calm Calm - N/A   Clear
10:55 PM 69.4 °F - 68.9 °F 98% 29.94 in 10.0 mi Calm Calm - N/A   Clear
11:15 PM 69.8 °F - 68.9 °F 97% 29.95 in 10.0 mi Calm Calm - N/A   Clear
11:35 PM 69.4 °F - 68.7 °F 98% 29.95 in 10.0 mi Calm Calm - N/A   Clear
11:55 PM 69.4 °F - 68.7 °F 98% 29.95 in 10.0 mi SE 5.8 mph - N/A   Clear